Time,TemperatureF,DewpointF,PressureIn,WindDirection,WindDirectionDegrees,WindSpeedMPH,WindSpeedGustMPH,Humidity,HourlyPrecipIn,Conditions,Clouds,dailyrainin,SoftwareType,DateUTC
2013-07-19 00:01:00,70.3,69.0,29.54,NNW,337,2.0,2.0,99,0.00,,,0.00,Rainwise IP-100,2013-07-19 04:01:00,
2013-07-19 00:06:00,70.2,69.0,29.54,NNW,337,2.0,2.0,99,0.00,,,0.00,Rainwise IP-100,2013-07-19 04:06:00,
2013-07-19 00:11:00,70.1,69.0,29.54,NNW,337,2.0,2.0,99,0.00,,,0.00,Rainwise IP-100,2013-07-19 04:11:00,
2013-07-19 00:17:00,70.1,69.0,29.54,NNW,337,2.0,2.0,99,0.00,,,0.00,Rainwise IP-100,2013-07-19 04:17:00,
2013-07-19 00:22:00,70.0,69.0,29.54,NNW,337,0.0,3.0,99,0.00,,,0.00,Rainwise IP-100,2013-07-19 04:22:00,
2013-07-19 00:27:00,69.9,69.0,29.54,NNW,337,0.0,1.0,99,0.00,,,0.00,Rainwise IP-100,2013-07-19 04:27:00,
2013-07-19 00:32:00,69.9,69.0,29.53,SSE,157,2.0,2.0,99,0.00,,,0.00,Rainwise IP-100,2013-07-19 04:32:00,
2013-07-19 00:37:00,70.0,69.0,29.53,SSE,157,0.0,2.0,99,0.00,,,0.00,Rainwise IP-100,2013-07-19 04:37:00,
2013-07-19 00:42:00,70.0,69.0,29.53,SSE,157,0.0,0.0,99,0.00,,,0.00,Rainwise IP-100,2013-07-19 04:42:00,
2013-07-19 00:47:00,69.9,69.0,29.53,SSE,157,0.0,0.0,99,0.00,,,0.00,Rainwise IP-100,2013-07-19 04:47:00,
2013-07-19 00:52:00,69.9,69.0,29.52,SSE,157,0.0,0.0,99,0.00,,,0.00,Rainwise IP-100,2013-07-19 04:52:00,
2013-07-19 00:57:00,69.9,69.0,29.53,SSE,157,0.0,0.0,99,0.00,,,0.00,Rainwise IP-100,2013-07-19 04:57:00,
2013-07-19 01:02:00,69.9,69.0,29.53,SSE,157,0.0,0.0,99,0.00,,,0.00,Rainwise IP-100,2013-07-19 05:02:00,
2013-07-19 01:07:00,69.9,69.0,29.52,SSE,157,0.0,0.0,99,0.00,,,0.00,Rainwise IP-100,2013-07-19 05:07:00,
2013-07-19 01:12:00,69.9,69.0,29.52,SSE,157,1.0,1.0,99,0.00,,,0.00,Rainwise IP-100,2013-07-19 05:12:00,
2013-07-19 01:17:00,69.9,69.0,29.52,SSE,157,0.0,1.0,99,0.00,,,0.00,Rainwise IP-100,2013-07-19 05:17:00,
2013-07-19 01:22:00,70.0,69.0,29.53,SSE,157,0.0,0.0,99,0.00,,,0.00,Rainwise IP-100,2013-07-19 05:22:00,
2013-07-19 01:27:00,70.1,70.0,29.53,SSE,157,0.0,0.0,100,0.00,,,0.00,Rainwise IP-100,2013-07-19 05:27:00,
2013-07-19 01:33:00,70.2,70.0,29.53,NNW,337,0.0,2.0,100,0.00,,,0.00,Rainwise IP-100,2013-07-19 05:33:00,
2013-07-19 01:38:00,70.3,70.0,29.53,NNW,337,0.0,2.0,100,0.00,,,0.00,Rainwise IP-100,2013-07-19 05:38:00,
2013-07-19 01:43:00,70.3,70.0,29.52,NNW,337,0.0,0.0,100,0.00,,,0.00,Rainwise IP-100,2013-07-19 05:43:00,
2013-07-19 01:48:00,70.4,70.0,29.52,NNW,337,0.0,0.0,100,0.00,,,0.00,Rainwise IP-100,2013-07-19 05:48:00,
2013-07-19 01:53:00,70.4,70.0,29.52,NNW,337,0.0,0.0,100,0.00,,,0.00,Rainwise IP-100,2013-07-19 05:53:00,
2013-07-19 01:58:00,70.4,70.0,29.52,NNW,337,1.0,0.0,100,0.00,,,0.00,Rainwise IP-100,2013-07-19 05:58:00,
2013-07-19 02:03:00,70.4,70.0,29.52,NNW,337,0.0,1.0,100,0.00,,,0.00,Rainwise IP-100,2013-07-19 06:03:00,
2013-07-19 02:08:00,70.5,70.0,29.52,SW,225,2.0,2.0,100,0.00,,,0.00,Rainwise IP-100,2013-07-19 06:08:00,
2013-07-19 02:13:00,70.6,70.0,29.52,SW,225,1.0,2.0,100,0.00,,,0.00,Rainwise IP-100,2013-07-19 06:13:00,
2013-07-19 02:18:00,70.6,70.0,29.52,SW,225,0.0,1.0,100,0.00,,,0.00,Rainwise IP-100,2013-07-19 06:18:00,
2013-07-19 02:23:00,70.6,70.0,29.51,SSW,202,1.0,2.0,100,0.00,,,0.00,Rainwise IP-100,2013-07-19 06:23:00,
2013-07-19 02:28:00,70.7,70.0,29.52,WSW,247,2.0,4.0,100,0.00,,,0.00,Rainwise IP-100,2013-07-19 06:28:00,
2013-07-19 02:33:00,70.7,70.0,29.52,SSW,202,1.0,5.0,100,0.00,,,0.00,Rainwise IP-100,2013-07-19 06:33:00,
2013-07-19 02:38:00,70.7,70.0,29.52,WSW,247,3.0,3.0,100,0.00,,,0.00,Rainwise IP-100,2013-07-19 06:38:00,
2013-07-19 02:43:00,70.6,70.0,29.51,SSW,202,2.0,3.0,100,0.00,,,0.00,Rainwise IP-100,2013-07-19 06:43:00,
2013-07-19 02:49:00,70.6,70.0,29.51,SW,225,0.0,3.0,100,0.00,,,0.00,Rainwise IP-100,2013-07-19 06:49:00,
2013-07-19 02:54:00,70.6,70.0,29.51,South,180,4.0,4.0,100,0.00,,,0.00,Rainwise IP-100,2013-07-19 06:54:00,
2013-07-19 02:59:00,70.6,70.0,29.50,SSW,202,2.0,3.0,100,0.00,,,0.00,Rainwise IP-100,2013-07-19 06:59:00,
2013-07-19 03:04:00,70.6,70.0,29.50,SW,225,3.0,3.0,100,0.00,,,0.00,Rainwise IP-100,2013-07-19 07:04:00,
2013-07-19 03:09:00,70.5,70.0,29.50,South,180,2.0,4.0,100,0.00,,,0.00,Rainwise IP-100,2013-07-19 07:09:00,
2013-07-19 03:14:00,70.6,70.0,29.49,SSW,202,4.0,4.0,100,0.00,,,0.00,Rainwise IP-100,2013-07-19 07:14:00,
2013-07-19 03:19:00,70.6,70.0,29.50,SW,225,4.0,4.0,100,0.00,,,0.00,Rainwise IP-100,2013-07-19 07:19:00,
2013-07-19 03:24:00,70.6,70.0,29.50,SW,225,3.0,4.0,100,0.00,,,0.00,Rainwise IP-100,2013-07-19 07:24:00,
2013-07-19 03:29:00,70.7,70.0,29.49,SSW,202,3.0,3.0,100,0.00,,,0.00,Rainwise IP-100,2013-07-19 07:29:00,
2013-07-19 03:34:00,70.6,70.0,29.49,SSW,202,2.0,3.0,100,0.00,,,0.00,Rainwise IP-100,2013-07-19 07:34:00,
2013-07-19 03:39:00,70.6,70.0,29.49,SW,225,2.0,3.0,100,0.00,,,0.00,Rainwise IP-100,2013-07-19 07:39:00,
2013-07-19 03:44:00,70.6,70.0,29.49,SSW,202,3.0,3.0,100,0.00,,,0.00,Rainwise IP-100,2013-07-19 07:44:00,
2013-07-19 03:49:00,70.5,70.0,29.48,SSW,202,4.0,5.0,100,0.00,,,0.00,Rainwise IP-100,2013-07-19 07:49:00,
2013-07-19 03:54:00,70.5,70.0,29.49,SSW,202,2.0,6.0,100,0.00,,,0.00,Rainwise IP-100,2013-07-19 07:54:00,
2013-07-19 03:59:00,70.5,70.0,29.48,SSE,157,2.0,6.0,100,0.00,,,0.00,Rainwise IP-100,2013-07-19 07:59:00,
2013-07-19 04:05:00,70.5,70.0,29.48,SW,225,2.0,5.0,100,0.00,,,0.00,Rainwise IP-100,2013-07-19 08:05:00,
2013-07-19 04:10:00,70.4,70.0,29.48,SSW,202,3.0,4.0,100,0.00,,,0.00,Rainwise IP-100,2013-07-19 08:10:00,
2013-07-19 04:15:00,70.4,70.0,29.48,SSW,202,4.0,4.0,100,0.00,,,0.00,Rainwise IP-100,2013-07-19 08:15:00,
2013-07-19 04:20:00,70.4,70.0,29.49,SSW,202,2.0,4.0,100,0.00,,,0.00,Rainwise IP-100,2013-07-19 08:20:00,
2013-07-19 04:25:00,70.3,70.0,29.48,SSW,202,4.0,4.0,100,0.00,,,0.00,Rainwise IP-100,2013-07-19 08:25:00,
2013-07-19 04:30:00,70.3,70.0,29.48,SSW,202,4.0,5.0,100,0.00,,,0.00,Rainwise IP-100,2013-07-19 08:30:00,
2013-07-19 04:35:00,70.3,70.0,29.48,SSW,202,4.0,6.0,100,0.00,,,0.00,Rainwise IP-100,2013-07-19 08:35:00,
2013-07-19 04:40:00,70.3,70.0,29.48,SSW,202,4.0,5.0,100,0.00,,,0.00,Rainwise IP-100,2013-07-19 08:40:00,
2013-07-19 04:45:00,70.3,70.0,29.48,SSW,202,3.0,4.0,100,0.00,,,0.00,Rainwise IP-100,2013-07-19 08:45:00,
2013-07-19 04:50:00,70.3,70.0,29.47,South,180,2.0,4.0,100,0.00,,,0.00,Rainwise IP-100,2013-07-19 08:50:00,
2013-07-19 04:55:00,70.3,70.0,29.47,SSW,202,2.0,3.0,100,0.00,,,0.00,Rainwise IP-100,2013-07-19 08:55:00,
2013-07-19 05:00:00,70.3,70.0,29.47,SSW,202,3.0,3.0,100,0.00,,,0.00,Rainwise IP-100,2013-07-19 09:00:00,
2013-07-19 05:05:00,70.3,70.0,29.48,South,180,2.0,3.0,100,0.00,,,0.00,Rainwise IP-100,2013-07-19 09:05:00,
2013-07-19 05:10:00,70.2,70.0,29.47,South,180,0.0,2.0,100,0.00,,,0.00,Rainwise IP-100,2013-07-19 09:10:00,
2013-07-19 05:15:00,70.2,70.0,29.48,SSE,157,0.0,1.0,100,0.00,,,0.00,Rainwise IP-100,2013-07-19 09:15:00,
2013-07-19 05:21:00,70.2,70.0,29.48,SSE,157,0.0,1.0,100,0.00,,,0.00,Rainwise IP-100,2013-07-19 09:21:00,
2013-07-19 05:26:00,70.1,70.0,29.48,SSW,202,1.0,0.0,100,0.00,,,0.00,Rainwise IP-100,2013-07-19 09:26:00,
2013-07-19 05:31:00,70.1,70.0,29.48,SSW,202,0.0,1.0,100,0.00,,,0.00,Rainwise IP-100,2013-07-19 09:31:00,
2013-07-19 05:36:00,70.2,70.0,29.48,SSW,202,0.0,1.0,100,0.00,,,0.00,Rainwise IP-100,2013-07-19 09:36:00,
2013-07-19 05:41:00,70.2,70.0,29.48,SSW,202,1.0,2.0,100,0.00,,,0.00,Rainwise IP-100,2013-07-19 09:41:00,
2013-07-19 05:46:00,70.1,70.0,29.48,SSW,202,2.0,3.0,100,0.00,,,0.00,Rainwise IP-100,2013-07-19 09:46:00,
2013-07-19 05:51:00,70.1,70.0,29.48,SSW,202,2.0,3.0,100,0.00,,,0.00,Rainwise IP-100,2013-07-19 09:51:00,
2013-07-19 05:56:00,70.0,70.0,29.48,SSW,202,0.0,3.0,100,0.00,,,0.00,Rainwise IP-100,2013-07-19 09:56:00,
2013-07-19 06:01:00,70.0,70.0,29.48,SSW,202,3.0,3.0,100,0.00,,,0.00,Rainwise IP-100,2013-07-19 10:01:00,
2013-07-19 06:06:00,70.0,70.0,29.48,SSW,202,1.0,3.0,100,0.00,,,0.00,Rainwise IP-100,2013-07-19 10:06:00,
2013-07-19 06:11:00,70.0,70.0,29.47,SSE,157,1.0,2.0,100,0.00,,,0.00,Rainwise IP-100,2013-07-19 10:11:00,
2013-07-19 06:16:00,70.0,70.0,29.47,SSE,157,2.0,4.0,100,0.00,,,0.00,Rainwise IP-100,2013-07-19 10:16:00,
2013-07-19 06:21:00,70.0,70.0,29.48,SSW,202,3.0,4.0,100,0.00,,,0.00,Rainwise IP-100,2013-07-19 10:21:00,
2013-07-19 06:26:00,70.0,70.0,29.48,SSW,202,0.0,3.0,100,0.00,,,0.00,Rainwise IP-100,2013-07-19 10:26:00,
2013-07-19 06:31:00,70.1,70.0,29.47,SSW,202,0.0,1.0,100,0.00,,,0.00,Rainwise IP-100,2013-07-19 10:31:00,
2013-07-19 06:37:00,70.2,70.0,29.47,ENE,67,2.0,2.0,100,0.00,,,0.00,Rainwise IP-100,2013-07-19 10:37:00,
2013-07-19 06:42:00,70.4,70.0,29.47,ENE,67,0.0,2.0,100,0.00,,,0.00,Rainwise IP-100,2013-07-19 10:42:00,
2013-07-19 06:47:00,70.8,70.0,29.47,South,180,1.0,2.0,100,0.00,,,0.00,Rainwise IP-100,2013-07-19 10:47:00,
2013-07-19 06:52:00,71.0,71.0,29.47,NE,45,3.0,3.0,100,0.00,,,0.00,Rainwise IP-100,2013-07-19 10:52:00,
2013-07-19 06:57:00,71.1,71.0,29.47,NE,45,2.0,3.0,100,0.00,,,0.00,Rainwise IP-100,2013-07-19 10:57:00,
2013-07-19 07:02:00,71.0,71.0,29.46,NE,45,4.0,4.0,100,0.00,,,0.00,Rainwise IP-100,2013-07-19 11:02:00,
2013-07-19 07:07:00,71.0,71.0,29.46,ENE,67,1.0,3.0,100,0.00,,,0.00,Rainwise IP-100,2013-07-19 11:07:00,
2013-07-19 07:12:00,71.5,71.0,29.46,ENE,67,0.0,1.0,100,0.00,,,0.00,Rainwise IP-100,2013-07-19 11:12:00,
2013-07-19 07:17:00,72.4,72.0,29.46,SSW,202,1.0,3.0,100,0.00,,,0.00,Rainwise IP-100,2013-07-19 11:17:00,
2013-07-19 07:22:00,73.0,73.0,29.46,South,180,2.0,4.0,100,0.00,,,0.00,Rainwise IP-100,2013-07-19 11:22:00,
2013-07-19 07:27:00,73.4,73.0,29.46,SSW,202,2.0,4.0,100,0.00,,,0.00,Rainwise IP-100,2013-07-19 11:27:00,
2013-07-19 07:32:00,73.6,73.0,29.46,SSE,157,2.0,4.0,99,0.00,,,0.00,Rainwise IP-100,2013-07-19 11:32:00,
2013-07-19 07:37:00,74.1,73.0,29.46,ESE,112,2.0,4.0,98,0.00,,,0.00,Rainwise IP-100,2013-07-19 11:37:00,
2013-07-19 07:42:00,75.3,74.0,29.45,ESE,112,0.0,2.0,99,0.00,,,0.00,Rainwise IP-100,2013-07-19 11:42:00,
2013-07-19 07:47:00,76.8,76.0,29.45,SSW,202,3.0,3.0,99,0.00,,,0.00,Rainwise IP-100,2013-07-19 11:47:00,
2013-07-19 07:53:00,77.1,76.0,29.45,SSE,157,2.0,4.0,99,0.00,,,0.00,Rainwise IP-100,2013-07-19 11:53:00,
2013-07-19 07:58:00,77.1,76.0,29.45,SSE,157,0.0,4.0,99,0.00,,,0.00,Rainwise IP-100,2013-07-19 11:58:00,
2013-07-19 08:03:00,77.5,77.0,29.45,WSW,247,1.0,3.0,98,0.00,,,0.00,Rainwise IP-100,2013-07-19 12:03:00,
2013-07-19 08:08:00,77.3,76.0,29.45,SW,225,7.0,7.0,96,0.00,,,0.00,Rainwise IP-100,2013-07-19 12:08:00,
2013-07-19 08:13:00,77.0,74.0,29.45,SSW,202,1.0,7.0,93,0.00,,,0.00,Rainwise IP-100,2013-07-19 12:13:00,
2013-07-19 08:18:00,76.6,73.0,29.44,South,180,3.0,4.0,91,0.00,,,0.00,Rainwise IP-100,2013-07-19 12:18:00,
2013-07-19 08:23:00,76.5,73.0,29.45,SSE,157,0.0,3.0,90,0.00,,,0.00,Rainwise IP-100,2013-07-19 12:23:00,
2013-07-19 08:28:00,76.8,73.0,29.45,SSE,157,3.0,3.0,89,0.00,,,0.00,Rainwise IP-100,2013-07-19 12:28:00,
2013-07-19 08:33:00,76.9,73.0,29.45,SSE,157,3.0,5.0,88,0.00,,,0.00,Rainwise IP-100,2013-07-19 12:33:00,
2013-07-19 08:38:00,77.2,73.0,29.45,SE,135,0.0,5.0,88,0.00,,,0.00,Rainwise IP-100,2013-07-19 12:38:00,
2013-07-19 08:43:00,77.4,73.0,29.45,SSE,157,4.0,5.0,88,0.00,,,0.00,Rainwise IP-100,2013-07-19 12:43:00,
2013-07-19 08:48:00,77.5,73.0,29.45,South,180,0.0,6.0,87,0.00,,,0.00,Rainwise IP-100,2013-07-19 12:48:00,
2013-07-19 08:53:00,77.5,73.0,29.45,SSW,202,2.0,6.0,87,0.00,,,0.00,Rainwise IP-100,2013-07-19 12:53:00,
2013-07-19 08:58:00,77.2,73.0,29.44,SSW,202,6.0,7.0,87,0.00,,,0.00,Rainwise IP-100,2013-07-19 12:58:00,
2013-07-19 09:03:00,77.1,73.0,29.45,SSW,202,4.0,7.0,87,0.00,,,0.00,Rainwise IP-100,2013-07-19 13:03:00,
2013-07-19 09:09:00,77.1,73.0,29.44,SSW,202,4.0,7.0,88,0.00,,,0.00,Rainwise IP-100,2013-07-19 13:09:00,
2013-07-19 09:14:00,77.1,73.0,29.44,SSW,202,7.0,8.0,88,0.00,,,0.00,Rainwise IP-100,2013-07-19 13:14:00,
2013-07-19 09:19:00,77.2,73.0,29.44,SSW,202,6.0,8.0,88,0.00,,,0.00,Rainwise IP-100,2013-07-19 13:19:00,
2013-07-19 09:24:00,77.4,73.0,29.44,SSW,202,6.0,8.0,88,0.00,,,0.00,Rainwise IP-100,2013-07-19 13:24:00,
2013-07-19 09:29:00,77.7,73.0,29.44,SSW,202,5.0,7.0,88,0.00,,,0.00,Rainwise IP-100,2013-07-19 13:29:00,
2013-07-19 09:34:00,77.9,74.0,29.43,SSW,202,4.0,8.0,88,0.00,,,0.00,Rainwise IP-100,2013-07-19 13:34:00,
2013-07-19 09:39:00,78.0,73.0,29.43,SSE,157,6.0,8.0,87,0.00,,,0.00,Rainwise IP-100,2013-07-19 13:39:00,
2013-07-19 09:44:00,78.2,74.0,29.43,SSE,157,6.0,8.0,87,0.00,,,0.00,Rainwise IP-100,2013-07-19 13:44:00,
2013-07-19 09:49:00,78.5,74.0,29.43,WSW,247,4.0,7.0,87,0.00,,,0.00,Rainwise IP-100,2013-07-19 13:49:00,
2013-07-19 09:54:00,78.8,74.0,29.43,SW,225,4.0,7.0,86,0.00,,,0.00,Rainwise IP-100,2013-07-19 13:54:00,
2013-07-19 09:59:00,79.1,74.0,29.43,SSE,157,5.0,7.0,86,0.00,,,0.00,Rainwise IP-100,2013-07-19 13:59:00,
2013-07-19 10:04:00,79.3,74.0,29.42,SSW,202,7.0,7.0,85,0.00,,,0.00,Rainwise IP-100,2013-07-19 14:04:00,
2013-07-19 10:09:00,79.6,74.0,29.42,SSW,202,7.0,7.0,85,0.00,,,0.00,Rainwise IP-100,2013-07-19 14:09:00,
2013-07-19 10:14:00,80.1,74.0,29.42,SSW,202,7.0,7.0,84,0.00,,,0.00,Rainwise IP-100,2013-07-19 14:14:00,
2013-07-19 10:19:00,80.8,75.0,29.42,South,180,2.0,9.0,83,0.00,,,0.00,Rainwise IP-100,2013-07-19 14:19:00,
2013-07-19 10:25:00,81.5,76.0,29.41,SSW,202,5.0,7.0,83,0.00,,,0.00,Rainwise IP-100,2013-07-19 14:25:00,
2013-07-19 10:30:00,82.2,76.0,29.41,SSW,202,6.0,8.0,82,0.00,,,0.00,Rainwise IP-100,2013-07-19 14:30:00,
2013-07-19 10:35:00,82.7,76.0,29.41,SSW,202,6.0,0.0,80,0.00,,,0.00,Rainwise IP-100,2013-07-19 14:35:00,
2013-07-19 10:40:00,82.7,75.0,29.41,South,180,4.0,9.0,79,0.00,,,0.00,Rainwise IP-100,2013-07-19 14:40:00,
2013-07-19 10:45:00,82.8,75.0,29.41,SSW,202,8.0,8.0,79,0.00,,,0.00,Rainwise IP-100,2013-07-19 14:45:00,
2013-07-19 10:50:00,83.1,75.0,29.40,SSW,202,8.0,0.0,78,0.00,,,0.00,Rainwise IP-100,2013-07-19 14:50:00,
2013-07-19 10:55:00,83.0,75.0,29.41,South,180,9.0,0.0,78,0.00,,,0.00,Rainwise IP-100,2013-07-19 14:55:00,
2013-07-19 11:00:00,82.9,75.0,29.41,SSE,157,8.0,8.0,77,0.00,,,0.00,Rainwise IP-100,2013-07-19 15:00:00,
2013-07-19 11:05:00,83.1,75.0,29.40,SSW,202,5.0,0.0,77,0.00,,,0.00,Rainwise IP-100,2013-07-19 15:05:00,
2013-07-19 11:10:00,83.6,75.0,29.40,WSW,247,8.0,8.0,76,0.00,,,0.00,Rainwise IP-100,2013-07-19 15:10:00,
2013-07-19 11:15:00,84.0,75.0,29.40,South,180,0.0,0.0,75,0.00,,,0.00,Rainwise IP-100,2013-07-19 15:15:00,
2013-07-19 11:20:00,84.0,74.0,29.39,SSW,202,6.0,6.0,74,0.00,,,0.00,Rainwise IP-100,2013-07-19 15:20:00,
2013-07-19 11:25:00,84.2,75.0,29.40,SSE,157,0.0,0.0,74,0.00,,,0.00,Rainwise IP-100,2013-07-19 15:25:00,
2013-07-19 11:30:00,84.5,75.0,29.39,SW,225,5.0,5.0,73,0.00,,,0.00,Rainwise IP-100,2013-07-19 15:30:00,
2013-07-19 11:35:00,84.8,74.0,29.39,SW,225,5.0,5.0,72,0.00,,,0.00,Rainwise IP-100,2013-07-19 15:35:00,
2013-07-19 11:41:00,85.2,75.0,29.39,SSW,202,8.0,8.0,72,0.00,,,0.00,Rainwise IP-100,2013-07-19 15:41:00,
2013-07-19 11:46:00,85.5,74.0,29.39,SSW,202,0.0,1.0,71,0.00,,,0.00,Rainwise IP-100,2013-07-19 15:46:00,
2013-07-19 11:51:00,85.9,75.0,29.39,South,180,8.0,8.0,70,0.00,,,0.00,Rainwise IP-100,2013-07-19 15:51:00,
2013-07-19 11:56:00,86.4,74.0,29.38,SSE,157,0.0,1.0,68,0.00,,,0.00,Rainwise IP-100,2013-07-19 15:56:00,
2013-07-19 12:01:00,86.9,75.0,29.38,South,180,7.0,7.0,68,0.00,,,0.00,Rainwise IP-100,2013-07-19 16:01:00,
2013-07-19 12:06:00,87.3,74.0,29.38,SSW,202,8.0,8.0,66,0.00,,,0.00,Rainwise IP-100,2013-07-19 16:06:00,
2013-07-19 12:11:00,87.6,74.0,29.38,SSW,202,7.0,7.0,65,0.00,,,0.00,Rainwise IP-100,2013-07-19 16:11:00,
2013-07-19 12:16:00,87.6,73.0,29.37,SSW,202,6.0,6.0,64,0.00,,,0.00,Rainwise IP-100,2013-07-19 16:16:00,
2013-07-19 12:21:00,87.6,73.0,29.38,South,180,5.0,0.0,64,0.00,,,0.00,Rainwise IP-100,2013-07-19 16:21:00,
2013-07-19 12:26:00,87.6,73.0,29.38,SW,225,6.0,8.0,64,0.00,,,0.00,Rainwise IP-100,2013-07-19 16:26:00,
2013-07-19 12:31:00,87.5,73.0,29.38,SSW,202,8.0,8.0,63,0.00,,,0.00,Rainwise IP-100,2013-07-19 16:31:00,
2013-07-19 12:36:00,87.6,73.0,29.37,SSW,202,2.0,6.0,63,0.00,,,0.00,Rainwise IP-100,2013-07-19 16:36:00,
2013-07-19 12:41:00,87.8,73.0,29.38,SSW,202,6.0,9.0,63,0.00,,,0.00,Rainwise IP-100,2013-07-19 16:41:00,
2013-07-19 12:46:00,87.7,73.0,29.37,SW,225,9.0,9.0,63,0.00,,,0.00,Rainwise IP-100,2013-07-19 16:46:00,
2013-07-19 12:51:00,87.6,73.0,29.36,SSW,202,7.0,7.0,62,0.00,,,0.00,Rainwise IP-100,2013-07-19 16:51:00,
2013-07-19 12:57:00,87.9,73.0,29.36,SSW,202,0.0,4.0,62,0.00,,,0.00,Rainwise IP-100,2013-07-19 16:57:00,
2013-07-19 13:02:00,88.2,73.0,29.36,SSW,202,7.0,7.0,61,0.00,,,0.00,Rainwise IP-100,2013-07-19 17:02:00,
2013-07-19 13:07:00,88.6,73.0,29.36,SSE,157,6.0,9.0,61,0.00,,,0.00,Rainwise IP-100,2013-07-19 17:07:00,
2013-07-19 13:12:00,89.0,73.0,29.36,SSW,202,6.0,6.0,61,0.00,,,0.00,Rainwise IP-100,2013-07-19 17:12:00,
2013-07-19 13:17:00,89.2,73.0,29.35,SSW,202,7.0,7.0,60,0.00,,,0.00,Rainwise IP-100,2013-07-19 17:17:00,
2013-07-19 13:22:00,89.4,73.0,29.36,WSW,247,8.0,8.0,59,0.00,,,0.00,Rainwise IP-100,2013-07-19 17:22:00,
2013-07-19 13:27:00,89.4,73.0,29.35,SSE,157,7.0,7.0,59,0.00,,,0.00,Rainwise IP-100,2013-07-19 17:27:00,
2013-07-19 13:32:00,89.6,73.0,29.35,SSW,202,8.0,8.0,59,0.00,,,0.00,Rainwise IP-100,2013-07-19 17:32:00,
2013-07-19 13:37:00,89.8,73.0,29.34,SSW,202,7.0,8.0,59,0.00,,,0.00,Rainwise IP-100,2013-07-19 17:37:00,
2013-07-19 13:42:00,89.6,72.0,29.35,SSW,202,0.0,5.0,58,0.00,,,0.00,Rainwise IP-100,2013-07-19 17:42:00,
2013-07-19 13:47:00,89.5,72.0,29.34,SSW,202,0.0,5.0,58,0.00,,,0.00,Rainwise IP-100,2013-07-19 17:47:00,
2013-07-19 13:52:00,89.5,72.0,29.34,SSW,202,5.0,6.0,58,0.00,,,0.00,Rainwise IP-100,2013-07-19 17:52:00,
2013-07-19 13:57:00,89.5,72.0,29.33,SSE,157,4.0,6.0,58,0.00,,,0.00,Rainwise IP-100,2013-07-19 17:57:00,
2013-07-19 14:02:00,89.7,72.0,29.33,SSW,202,3.0,5.0,57,0.00,,,0.00,Rainwise IP-100,2013-07-19 18:02:00,
2013-07-19 14:07:00,90.1,72.0,29.33,SW,225,7.0,7.0,57,0.00,,,0.00,Rainwise IP-100,2013-07-19 18:07:00,
2013-07-19 14:13:00,90.3,73.0,29.33,WSW,247,0.0,3.0,57,0.00,,,0.00,Rainwise IP-100,2013-07-19 18:13:00,
2013-07-19 14:18:00,90.6,72.0,29.32,SSW,202,0.0,5.0,56,0.00,,,0.00,Rainwise IP-100,2013-07-19 18:18:00,
2013-07-19 14:23:00,90.8,72.0,29.32,SSW,202,8.0,8.0,55,0.00,,,0.00,Rainwise IP-100,2013-07-19 18:23:00,
2013-07-19 14:28:00,91.0,72.0,29.32,SSE,157,4.0,7.0,54,0.00,,,0.00,Rainwise IP-100,2013-07-19 18:28:00,
2013-07-19 14:33:00,91.1,72.0,29.31,WSW,247,4.0,4.0,54,0.00,,,0.00,Rainwise IP-100,2013-07-19 18:33:00,
2013-07-19 14:38:00,91.2,72.0,29.31,SSW,202,6.0,6.0,54,0.00,,,0.00,Rainwise IP-100,2013-07-19 18:38:00,
2013-07-19 14:43:00,91.4,72.0,29.31,SSW,202,4.0,4.0,54,0.00,,,0.00,Rainwise IP-100,2013-07-19 18:43:00,
2013-07-19 14:48:00,91.8,72.0,29.31,SSW,202,9.0,9.0,53,0.00,,,0.00,Rainwise IP-100,2013-07-19 18:48:00,
2013-07-19 14:53:00,91.9,72.0,29.30,SSE,157,0.0,4.0,53,0.00,,,0.00,Rainwise IP-100,2013-07-19 18:53:00,
2013-07-19 14:58:00,91.7,72.0,29.30,SW,225,8.0,8.0,53,0.00,,,0.00,Rainwise IP-100,2013-07-19 18:58:00,
2013-07-19 15:03:00,91.4,72.0,29.30,WSW,247,0.0,7.0,53,0.00,,,0.00,Rainwise IP-100,2013-07-19 19:03:00,
2013-07-19 15:08:00,91.5,72.0,29.29,ENE,67,2.0,6.0,53,0.00,,,0.00,Rainwise IP-100,2013-07-19 19:08:00,
2013-07-19 15:13:00,91.8,72.0,29.29,West,270,0.0,3.0,53,0.00,,,0.00,Rainwise IP-100,2013-07-19 19:13:00,
2013-07-19 15:18:00,91.8,72.0,29.29,SSW,202,7.0,7.0,53,0.00,,,0.00,Rainwise IP-100,2013-07-19 19:18:00,
2013-07-19 15:23:00,91.8,72.0,29.28,SSE,157,3.0,4.0,53,0.00,,,0.00,Rainwise IP-100,2013-07-19 19:23:00,
2013-07-19 15:29:00,92.0,72.0,29.29,WSW,247,6.0,6.0,53,0.00,,,0.00,Rainwise IP-100,2013-07-19 19:29:00,
2013-07-19 15:34:00,91.8,72.0,29.29,WSW,247,4.0,4.0,53,0.00,,,0.00,Rainwise IP-100,2013-07-19 19:34:00,
2013-07-19 15:39:00,91.7,72.0,29.29,SSW,202,6.0,6.0,53,0.00,,,0.00,Rainwise IP-100,2013-07-19 19:39:00,
2013-07-19 15:44:00,91.6,71.0,29.29,South,180,0.0,0.0,52,0.00,,,0.00,Rainwise IP-100,2013-07-19 19:44:00,
2013-07-19 15:49:00,91.2,71.0,29.28,SSW,202,6.0,6.0,52,0.00,,,0.00,Rainwise IP-100,2013-07-19 19:49:00,
2013-07-19 15:54:00,91.1,71.0,29.28,SSE,157,7.0,7.0,53,0.00,,,0.00,Rainwise IP-100,2013-07-19 19:54:00,
2013-07-19 15:59:00,91.2,71.0,29.28,SW,225,9.0,9.0,53,0.00,,,0.00,Rainwise IP-100,2013-07-19 19:59:00,
2013-07-19 16:04:00,91.2,71.0,29.28,SSW,202,6.0,6.0,53,0.00,,,0.00,Rainwise IP-100,2013-07-19 20:04:00,
2013-07-19 16:09:00,91.5,72.0,29.27,SSW,202,8.0,8.0,53,0.00,,,0.00,Rainwise IP-100,2013-07-19 20:09:00,
2013-07-19 16:14:00,91.7,71.0,29.28,WSW,247,2.0,8.0,52,0.00,,,0.00,Rainwise IP-100,2013-07-19 20:14:00,
2013-07-19 16:19:00,91.8,71.0,29.27,SSW,202,0.0,6.0,52,0.00,,,0.00,Rainwise IP-100,2013-07-19 20:19:00,
2013-07-19 16:24:00,92.0,72.0,29.27,SSE,157,6.0,6.0,52,0.00,,,0.00,Rainwise IP-100,2013-07-19 20:24:00,
2013-07-19 16:29:00,92.0,71.0,29.27,SSW,202,0.0,7.0,51,0.00,,,0.00,Rainwise IP-100,2013-07-19 20:29:00,
2013-07-19 16:34:00,92.0,71.0,29.27,WSW,247,0.0,4.0,51,0.00,,,0.00,Rainwise IP-100,2013-07-19 20:34:00,
2013-07-19 16:39:00,91.8,71.0,29.27,SSE,157,0.0,5.0,51,0.00,,,0.00,Rainwise IP-100,2013-07-19 20:39:00,
2013-07-19 16:45:00,91.7,71.0,29.27,SSW,202,7.0,7.0,51,0.00,,,0.00,Rainwise IP-100,2013-07-19 20:45:00,
2013-07-19 16:50:00,91.8,71.0,29.27,SSE,157,0.0,0.0,51,0.00,,,0.00,Rainwise IP-100,2013-07-19 20:50:00,
2013-07-19 16:55:00,91.8,70.0,29.27,SSW,202,5.0,5.0,50,0.00,,,0.00,Rainwise IP-100,2013-07-19 20:55:00,
2013-07-19 17:00:00,91.8,70.0,29.27,SSW,202,6.0,8.0,50,0.00,,,0.00,Rainwise IP-100,2013-07-19 21:00:00,
2013-07-19 17:05:00,92.0,71.0,29.27,SSW,202,7.0,9.0,50,0.00,,,0.00,Rainwise IP-100,2013-07-19 21:05:00,
2013-07-19 17:10:00,92.3,71.0,29.27,SSW,202,9.0,9.0,50,0.00,,,0.00,Rainwise IP-100,2013-07-19 21:10:00,
2013-07-19 17:15:00,92.1,71.0,29.27,SSW,202,9.0,9.0,50,0.00,,,0.00,Rainwise IP-100,2013-07-19 21:15:00,
2013-07-19 17:20:00,92.0,70.0,29.27,South,180,8.0,8.0,49,0.00,,,0.00,Rainwise IP-100,2013-07-19 21:20:00,
2013-07-19 17:25:00,91.8,70.0,29.27,SW,225,0.0,7.0,50,0.00,,,0.00,Rainwise IP-100,2013-07-19 21:25:00,
2013-07-19 17:30:00,91.7,70.0,29.27,SSW,202,0.0,6.0,50,0.00,,,0.00,Rainwise IP-100,2013-07-19 21:30:00,
2013-07-19 17:35:00,91.4,70.0,29.27,SSW,202,0.0,4.0,50,0.00,,,0.00,Rainwise IP-100,2013-07-19 21:35:00,
2013-07-19 17:40:00,91.3,70.0,29.27,SE,135,7.0,7.0,50,0.00,,,0.00,Rainwise IP-100,2013-07-19 21:40:00,
2013-07-19 17:45:00,91.5,70.0,29.27,SW,225,4.0,4.0,50,0.00,,,0.00,Rainwise IP-100,2013-07-19 21:45:00,
2013-07-19 17:50:00,91.6,70.0,29.27,SSW,202,3.0,8.0,50,0.00,,,0.00,Rainwise IP-100,2013-07-19 21:50:00,
2013-07-19 17:55:00,91.6,71.0,29.27,SSW,202,4.0,4.0,51,0.00,,,0.00,Rainwise IP-100,2013-07-19 21:55:00,
2013-07-19 18:01:00,91.3,70.0,29.27,WSW,247,7.0,7.0,51,0.00,,,0.00,Rainwise IP-100,2013-07-19 22:01:00,
2013-07-19 18:06:00,91.1,71.0,29.26,SSW,202,8.0,8.0,52,0.00,,,0.00,Rainwise IP-100,2013-07-19 22:06:00,
2013-07-19 18:11:00,90.9,71.0,29.27,West,270,7.0,7.0,52,0.00,,,0.00,Rainwise IP-100,2013-07-19 22:11:00,
2013-07-19 18:16:00,90.7,71.0,29.27,SSW,202,8.0,8.0,52,0.00,,,0.00,Rainwise IP-100,2013-07-19 22:16:00,
2013-07-19 18:21:00,90.7,71.0,29.27,SSW,202,8.0,0.0,52,0.00,,,0.00,Rainwise IP-100,2013-07-19 22:21:00,
2013-07-19 18:26:00,90.6,70.0,29.26,SSW,202,8.0,8.0,52,0.00,,,0.00,Rainwise IP-100,2013-07-19 22:26:00,
2013-07-19 18:31:00,90.3,70.0,29.27,SW,225,4.0,4.0,52,0.00,,,0.00,Rainwise IP-100,2013-07-19 22:31:00,
2013-07-19 18:36:00,90.0,70.0,29.27,SW,225,5.0,0.0,53,0.00,,,0.00,Rainwise IP-100,2013-07-19 22:36:00,
2013-07-19 18:41:00,89.8,71.0,29.27,SSW,202,7.0,7.0,54,0.00,,,0.00,Rainwise IP-100,2013-07-19 22:41:00,
2013-07-19 18:46:00,89.5,71.0,29.27,SSW,202,5.0,5.0,55,0.00,,,0.00,Rainwise IP-100,2013-07-19 22:46:00,
2013-07-19 18:51:00,89.2,71.0,29.27,SSW,202,4.0,0.0,55,0.00,,,0.00,Rainwise IP-100,2013-07-19 22:51:00,
2013-07-19 18:56:00,89.0,71.0,29.27,SW,225,4.0,0.0,56,0.00,,,0.00,Rainwise IP-100,2013-07-19 22:56:00,
2013-07-19 19:01:00,88.8,71.0,29.27,SSW,202,8.0,8.0,56,0.00,,,0.00,Rainwise IP-100,2013-07-19 23:01:00,
2013-07-19 19:06:00,88.9,71.0,29.27,SW,225,9.0,9.0,56,0.00,,,0.00,Rainwise IP-100,2013-07-19 23:06:00,
2013-07-19 19:11:00,88.9,71.0,29.27,SSW,202,5.0,5.0,56,0.00,,,0.00,Rainwise IP-100,2013-07-19 23:11:00,
2013-07-19 19:17:00,88.5,71.0,29.27,SSW,202,3.0,3.0,56,0.00,,,0.00,Rainwise IP-100,2013-07-19 23:17:00,
2013-07-19 19:22:00,88.2,71.0,29.27,SSW,202,6.0,7.0,57,0.00,,,0.00,Rainwise IP-100,2013-07-19 23:22:00,
2013-07-19 19:27:00,88.1,71.0,29.27,SSW,202,7.0,7.0,57,0.00,,,0.00,Rainwise IP-100,2013-07-19 23:27:00,
2013-07-19 19:32:00,88.0,71.0,29.27,SSW,202,5.0,7.0,57,0.00,,,0.00,Rainwise IP-100,2013-07-19 23:32:00,
2013-07-19 19:37:00,88.0,71.0,29.27,SSW,202,5.0,0.0,57,0.00,,,0.00,Rainwise IP-100,2013-07-19 23:37:00,